Flugplatz Leer-Papenburg

EDWF · Baixa Saxônia, Alemanha

História da METAR EDWF · Leer-Papenburg Airport

Abaixo você vê METARs dos últimos dias. Selecione um ano para navegar pelos METARs mais antigos, a partir do ano 2007.

27 de novembro de 2022

Hora Código Clima Temp. Visibilidade Tecto Vento METAR/SPECI
05:20
U
4 °C 0 m - 170° 170° 7 kt METAR ETNT 270420Z AUTO 17007KT //// // ////// 04/03 Q1023 ///
04:20
U
4 °C 0 m - 170° 170° 5 kt METAR ETNT 270320Z AUTO 17005KT //// // ////// 04/04 Q1023 ///
03:20
U
5 °C 0 m - 180° 180° 6 kt METAR ETNT 270220Z AUTO 18006KT //// // ////// 05/04 Q1024 ///
02:20
U
6 °C 0 m - 180° 180° 6 kt METAR ETNT 270120Z AUTO 18006KT //// // ////// 06/05 Q1024 ///
01:20
U
7 °C 0 m - 180° 180° 7 kt METAR ETNT 270020Z AUTO 18007KT //// // ////// 07/06 Q1024 ///
00:20
U
6 °C 0 m - 180° 180° 6 kt METAR ETNT 262320Z AUTO 18006KT //// // ////// 06/06 Q1025 ///

26 de novembro de 2022

Hora Código Clima Temp. Visibilidade Tecto Vento METAR/SPECI
23:20
U
6 °C 0 m - 180° 180° 4 kt METAR ETNT 262220Z AUTO 18004KT //// // ////// 06/06 Q1025 ///
22:20
U
6 °C 0 m - 200° 200° 5 kt METAR ETNT 262120Z AUTO 20005KT //// // ////// 06/06 Q1026 ///
21:20
U
6 °C 0 m - 190° 190° 5 kt METAR ETNT 262020Z AUTO 19005KT //// // ////// 06/06 Q1026 ///
20:20
U
7 °C 0 m - 180° 180° 4 kt METAR ETNT 261920Z AUTO 18004KT //// // ////// 07/06 Q1026 ///
19:20
U
7 °C 0 m - 190° 190° 5 kt METAR ETNT 261820Z AUTO 19005KT //// // ////// 07/07 Q1026 ///
18:20
U
7 °C 0 m - 190° 190° 5 kt METAR ETNT 261720Z AUTO 19005KT //// // ////// 07/07 Q1026 ///
17:20
U
8 °C 0 m - 190° 190° 8 kt METAR ETNT 261620Z AUTO 19008KT //// // ////// 08/07 Q1026 ///
16:20
U
7 °C 0 m - 180° 180° 5 kt METAR ETNT 261520Z AUTO 18005KT //// // ////// 07/07 Q1026 ///
15:20
U
7 °C 0 m - 190° 190° 7 kt METAR ETNT 261420Z AUTO 19007KT //// // ////// 07/07 Q1026 ///
14:20
U
7 °C 0 m - 200° 200° 6 kt METAR ETNT 261320Z AUTO 20006KT //// // ////// 07/07 Q1027 ///
13:20
U
7 °C 0 m - 210° 210° 8 kt METAR ETNT 261220Z AUTO 21008KT //// // ////// 07/07 Q1027 ///
12:20
U
6 °C 0 m - 200° 200° 6 kt METAR ETNT 261120Z AUTO 20006KT //// // ////// 06/06 Q1027 ///
11:20
U
5 °C 0 m - 210° 210° 6 kt METAR ETNT 261020Z AUTO 21006KT //// // ////// 05/05 Q1027 ///
10:20
U
5 °C 0 m - 210° 210° 6 kt METAR ETNT 260920Z AUTO 21006KT //// // ////// 05/04 Q1027 ///
09:20
U
4 °C 0 m - Var Var 3 kt METAR ETNT 260820Z AUTO VRB03KT //// // ////// 04/04 Q1026 ///
08:20
U
3 °C 0 m - 220° 220° 4 kt METAR ETNT 260720Z AUTO 22004KT //// // ////// 03/03 Q1026 ///
07:20
U
3 °C 0 m - Var Var 2 kt METAR ETNT 260620Z AUTO VRB02KT //// // ////// 03/03 Q1025 ///
06:20
U
3 °C 0 m - 210° 210° 3 kt METAR ETNT 260520Z AUTO 21003KT //// // ////// 03/03 Q1025 ///
05:20
U
3 °C 0 m - 210° 210° 2 kt METAR ETNT 260420Z AUTO 21002KT //// // ////// 03/03 Q1024 ///
04:20
U
3 °C 0 m - 180° 180° 2 kt METAR ETNT 260320Z AUTO 18002KT //// // ////// 03/03 Q1024 ///
03:20
U
4 °C 0 m - 210° 210° 3 kt METAR ETNT 260220Z AUTO 21003KT //// // ////// 04/04 Q1023 ///
02:20
U
4 °C 0 m - 220° 220° 3 kt METAR ETNT 260120Z AUTO 22003KT //// // ////// 04/04 Q1023 ///
01:20
U
4 °C 0 m - 240° 240° 3 kt METAR ETNT 260020Z AUTO 24003KT //// // ////// 04/04 Q1022 ///
00:20
U
6 °C 0 m - 240° 240° 5 kt METAR ETNT 252320Z AUTO 24005KT //// // ////// 06/05 Q1022 ///

25 de novembro de 2022

Hora Código Clima Temp. Visibilidade Tecto Vento METAR/SPECI
23:20
U
5 °C 0 m - 240° 240° 4 kt METAR ETNT 252220Z AUTO 24004KT //// // ////// 05/05 Q1021 ///
22:20
U
6 °C 0 m - 240° 240° 4 kt METAR ETNT 252120Z AUTO 24004KT //// // ////// 06/05 Q1021 ///
21:20
U
6 °C 0 m - 260° 260° 5 kt METAR ETNT 252020Z AUTO 26005KT //// // ////// 06/06 Q1020 ///
20:20
U
7 °C 0 m - 250° 250° 5 kt METAR ETNT 251920Z AUTO 25005KT //// // ////// 07/06 Q1019 ///
19:20
U
8 °C 0 m - 250° 250° 5 kt METAR ETNT 251820Z AUTO 25005KT //// // ////// 08/07 Q1018 ///
18:20
U
9 °C 0 m - 240° 240° 7 kt METAR ETNT 251720Z AUTO 24007KT //// // ////// 09/07 Q1017 ///
17:20
U
9 °C 0 m - 230° 230° 6 kt METAR ETNT 251620Z AUTO 23006KT //// // ////// 09/08 Q1016 ///
16:20
U
9 °C 0 m - 230° 230° 3 kt METAR ETNT 251520Z AUTO 23003KT //// // ////// 09/07 Q1015 ///
15:20
U
10 °C 0 m - 230° 230° 8 kt METAR ETNT 251420Z AUTO 23008KT //// // ////// 10/08 Q1014 ///
14:20
U
10 °C 0 m - 230° 230° 8 kt METAR ETNT 251320Z AUTO 23008KT //// // ////// 10/08 Q1013 ///
13:20
V
10 °C 10 km+ - 230° 230° 9 kt METAR ETNT 251220Z 23009KT 9999 FEW012 SCT150 10/08 Q1013 BLACKBLU+
12:20
V
10 °C 10 km+ - 230° 230° 10 kt METAR ETNT 251120Z 23010KT 9999 FEW009 SCT012 10/08 Q1012 BLACKBLU+
11:20
M
9 °C 10 km+ 1.200 ft 210° 210° 6 kt METAR ETNT 251020Z 21006KT 9999 FEW009 BKN012 09/08 Q1012 BLACKGRN
10:20
M
8 °C 8 km 1.500 ft 200° 200° 4 kt METAR ETNT 250920Z 20004KT 8000 SCT009 BKN015 BKN050 08/07 Q1011 BLACKWHT
10:07
M
7 °C 8 km 1.500 ft 180° 180° 4 kt METAR ETNT 250907Z 18004KT 8000 BKN015 BKN050 07/07 Q1011 BLACKWHT
09:20
V
7 °C 9 km 4.500 ft 190° 190° 5 kt METAR ETNT 250820Z 19005KT 9000 FEW010 BKN045 BKN110 07/07 Q1011 BLACKBLU
09:13
V
7 °C 9 km 4.500 ft 200° 200° 6 kt METAR ETNT 250813Z 20006KT 9000 FEW010 SCT020 BKN045 07/07 Q1011 BLACKBLU
08:20
M
7 °C 9 km 1.600 ft 200° 200° 6 kt METAR ETNT 250720Z 20006KT 9000 -RA BKN016 BKN040 07/06 Q1010 BLACKWHT
07:20
M
7 °C 8 km 2.300 ft 170° 170° 6 kt METAR ETNT 250620Z 17006KT 8000 BKN023 BKN045 07/06 Q1009 BLACKWHT
06:20
V
6 °C 8 km 4.500 ft 160° 160° 6 kt METAR ETNT 250520Z 16006KT 8000 -RA FEW020 BKN045 06/06 Q1009 BLACKBLU
05:20
U
6 °C 0 m - 180° 180° 7 kt METAR ETNT 250420Z AUTO 18007KT //// // ////// 06/05 Q1009 ///
04:20
U
6 °C 0 m - 170° 170° 7 kt METAR ETNT 250320Z AUTO 17007KT //// // ////// 06/04 Q1009 ///
03:20
U
6 °C 0 m - 160° 160° 6 kt METAR ETNT 250220Z AUTO 16006KT //// // ////// 06/04 Q1009 ///
02:20
U
6 °C 0 m - 160° 160° 7 kt METAR ETNT 250120Z AUTO 16007KT //// // ////// 06/04 Q1009 ///
01:20
U
6 °C 0 m - 160° 160° 6 kt METAR ETNT 250020Z AUTO 16006KT //// // ////// 06/04 Q1010 ///
00:20
U
6 °C 0 m - 160° 160° 6 kt METAR ETNT 242320Z AUTO 16006KT //// // ////// 06/05 Q1010 ///

24 de novembro de 2022

Hora Código Clima Temp. Visibilidade Tecto Vento METAR/SPECI
23:20
U
5 °C 0 m - 160° 160° 5 kt METAR ETNT 242220Z AUTO 16005KT //// // ////// 05/05 Q1010 ///
22:20
M
6 °C 7 km 22.000 ft 160° 160° 6 kt METAR ETNT 242120Z 16006KT 7000 FEW160 BKN220 06/05 Q1010 BLACKWHT
21:20
V
5 °C 8 km - 170° 170° 4 kt METAR ETNT 242020Z 17004KT 8000 FEW180 SCT260 05/05 Q1011 BLACKBLU+
20:20
V
5 °C 8 km - 170° 170° 3 kt METAR ETNT 241920Z 17003KT 8000 FEW250 05/05 Q1010 BLACKBLU+
19:20
V
6 °C 10 km+ - 170° 170° 5 kt METAR ETNT 241820Z 17005KT 9999 FEW250 06/06 Q1010 BLACKBLU+
18:20
V
7 °C 10 km+ - 180° 180° 5 kt METAR ETNT 241720Z 18005KT 9999 FEW250 07/06 Q1010 BLACKBLU+
17:20
V
7 °C 10 km+ - 180° 180° 4 kt METAR ETNT 241620Z 18004KT 9999 FEW025 07/06 Q1010 BLACKBLU+
16:20
V
9 °C 10 km+ - 200° 200° 5 kt METAR ETNT 241520Z 20005KT 9999 FEW014 09/06 Q1009 BLACKBLU+
15:20
V
10 °C 10 km+ - 200° 200° 6 kt METAR ETNT 241420Z 20006KT 9999 FEW014 10/07 Q1009 BLACKBLU+
14:20
V
10 °C 10 km+ - 230° 230° 8 kt METAR ETNT 241320Z 23008KT 9999 FEW014 10/07 Q1008 BLACKBLU+
13:20
V
9 °C 10 km+ - 230° 230° 9 kt METAR ETNT 241220Z 23009KT 9999 FEW014 09/07 Q1008 BLACKBLU+
12:20
V
9 °C 10 km+ - 230° 230° 9 kt METAR ETNT 241120Z 23009KT 9999 FEW012 09/07 Q1007 BLACKBLU+
11:20
V
8 °C 10 km+ - 230° 230° 8 kt METAR ETNT 241020Z 23008KT 9999 FEW010 08/06 Q1007 BLACKBLU+

Nós e terceiros acompanhamos seu comportamento na internet em nosso site com cookies. Se você continuar, nós assumimos que você concorda com nosso política de cookies.